Year,Month,Day,Hour,Minute,Value (Times are PST for temperature in C)
2013,05,05,00,00,9.60
2013,05,05,00,01,9.60
2013,05,05,00,02,9.60
2013,05,05,00,03,9.60
2013,05,05,00,04,9.60
2013,05,05,00,05,9.50
2013,05,05,00,06,9.50
2013,05,05,00,07,9.50
2013,05,05,00,08,9.40
2013,05,05,00,09,9.40
2013,05,05,00,10,9.40
2013,05,05,00,11,9.30
2013,05,05,00,12,9.30
2013,05,05,00,13,9.30
2013,05,05,00,14,9.30
2013,05,05,00,15,9.30
2013,05,05,00,16,9.30
2013,05,05,00,17,9.30
2013,05,05,00,18,9.30
2013,05,05,00,19,9.30
2013,05,05,00,20,9.30
2013,05,05,00,21,9.30
2013,05,05,00,22,9.40
2013,05,05,00,23,9.40
2013,05,05,00,24,9.40
2013,05,05,00,25,9.40
2013,05,05,00,26,9.40
2013,05,05,00,27,9.50
2013,05,05,00,28,9.50
2013,05,05,00,29,9.50
2013,05,05,00,30,9.50
2013,05,05,00,31,9.50
2013,05,05,00,32,9.40
2013,05,05,00,33,9.40
2013,05,05,00,34,9.40
2013,05,05,00,35,9.40
2013,05,05,00,36,9.40
2013,05,05,00,37,9.40
2013,05,05,00,38,9.40
2013,05,05,00,39,9.40
2013,05,05,00,40,9.40
2013,05,05,00,41,9.30
2013,05,05,00,42,9.30
2013,05,05,00,43,9.40
2013,05,05,00,44,9.40
2013,05,05,00,45,9.40
2013,05,05,00,46,9.50
2013,05,05,00,47,9.50
2013,05,05,00,48,9.50
2013,05,05,00,49,9.50
2013,05,05,00,50,9.50
2013,05,05,00,51,9.50
2013,05,05,00,52,9.40
2013,05,05,00,53,9.40
2013,05,05,00,54,9.30
2013,05,05,00,55,9.30
2013,05,05,00,56,9.20
2013,05,05,00,57,9.20
2013,05,05,00,58,9.10
2013,05,05,00,59,9.10
2013,05,05,01,00,9.10
2013,05,05,01,01,9.10
2013,05,05,01,02,9.00
2013,05,05,01,03,9.00
2013,05,05,01,04,8.90
2013,05,05,01,05,8.90
2013,05,05,01,06,8.90
2013,05,05,01,07,8.90
2013,05,05,01,08,8.90
2013,05,05,01,09,9.00
2013,05,05,01,10,8.90
2013,05,05,01,11,8.90
2013,05,05,01,12,8.90
2013,05,05,01,13,8.90
2013,05,05,01,14,8.90
2013,05,05,01,15,8.90
2013,05,05,01,16,8.90
2013,05,05,01,17,8.90
2013,05,05,01,18,8.90
2013,05,05,01,19,8.80
2013,05,05,01,20,8.80
2013,05,05,01,21,8.80
2013,05,05,01,22,8.80
2013,05,05,01,23,8.70
2013,05,05,01,24,8.70
2013,05,05,01,25,8.70
2013,05,05,01,26,8.70
2013,05,05,01,27,8.70
2013,05,05,01,28,8.70
2013,05,05,01,29,8.70
2013,05,05,01,30,8.70
2013,05,05,01,31,8.70
2013,05,05,01,32,8.70
2013,05,05,01,33,8.70
2013,05,05,01,34,8.70
2013,05,05,01,35,8.70
2013,05,05,01,36,8.70
2013,05,05,01,37,8.70
2013,05,05,01,38,8.70
2013,05,05,01,39,8.70
2013,05,05,01,40,8.60
2013,05,05,01,41,8.50
2013,05,05,01,42,8.50
2013,05,05,01,43,8.40
2013,05,05,01,44,8.40
2013,05,05,01,45,8.40
2013,05,05,01,46,8.40
2013,05,05,01,47,8.40
2013,05,05,01,48,8.40
2013,05,05,01,49,8.40
2013,05,05,01,50,8.30
2013,05,05,01,51,8.30
2013,05,05,01,52,8.30
2013,05,05,01,53,8.40
2013,05,05,01,54,8.40
2013,05,05,01,55,8.40
2013,05,05,01,56,8.30
2013,05,05,01,57,8.30
2013,05,05,01,58,8.30
2013,05,05,01,59,8.30
2013,05,05,02,00,8.20
2013,05,05,02,01,8.20
2013,05,05,02,02,8.20
2013,05,05,02,03,8.20
2013,05,05,02,04,8.20
2013,05,05,02,05,8.20
2013,05,05,02,06,8.20
2013,05,05,02,07,8.20
2013,05,05,02,08,8.20
2013,05,05,02,09,8.20
2013,05,05,02,10,8.20
2013,05,05,02,11,8.20
2013,05,05,02,12,8.20
2013,05,05,02,13,8.20
2013,05,05,02,14,8.20
2013,05,05,02,15,8.20
2013,05,05,02,16,8.20
2013,05,05,02,17,8.20
2013,05,05,02,18,8.20
2013,05,05,02,19,8.20
2013,05,05,02,20,8.20
2013,05,05,02,21,8.20
2013,05,05,02,22,8.20
2013,05,05,02,23,8.20
2013,05,05,02,24,8.10
2013,05,05,02,25,8.10
2013,05,05,02,26,8.10
2013,05,05,02,27,8.10
2013,05,05,02,28,8.10
2013,05,05,02,29,8.10
2013,05,05,02,30,8.10
2013,05,05,02,31,8.10
2013,05,05,02,32,8.00
2013,05,05,02,33,8.00
2013,05,05,02,34,8.00
2013,05,05,02,35,8.00
2013,05,05,02,36,8.00
2013,05,05,02,37,8.00
2013,05,05,02,38,8.00
2013,05,05,02,39,8.00
2013,05,05,02,40,7.90
2013,05,05,02,41,7.90
2013,05,05,02,42,7.90
2013,05,05,02,43,7.90
2013,05,05,02,44,7.80
2013,05,05,02,45,7.80
2013,05,05,02,46,7.80
2013,05,05,02,47,7.80
2013,05,05,02,48,7.80
2013,05,05,02,49,7.80
2013,05,05,02,50,7.80
2013,05,05,02,51,7.80
2013,05,05,02,52,7.80
2013,05,05,02,53,7.80
2013,05,05,02,54,7.80
2013,05,05,02,55,7.80
2013,05,05,02,56,7.70
2013,05,05,02,57,7.70
2013,05,05,02,58,7.70
2013,05,05,02,59,7.70
2013,05,05,03,00,7.70
2013,05,05,03,01,7.70
2013,05,05,03,02,7.70
2013,05,05,03,03,7.80
2013,05,05,03,04,7.80
2013,05,05,03,05,7.80
2013,05,05,03,06,7.80
2013,05,05,03,07,7.80
2013,05,05,03,08,7.80
2013,05,05,03,09,7.80
2013,05,05,03,10,7.80
2013,05,05,03,11,7.90
2013,05,05,03,12,7.90
2013,05,05,03,13,7.90
2013,05,05,03,14,8.00
2013,05,05,03,15,8.00
2013,05,05,03,16,8.00
2013,05,05,03,17,8.10
2013,05,05,03,18,8.10
2013,05,05,03,19,8.00
2013,05,05,03,20,8.00
2013,05,05,03,21,7.90
2013,05,05,03,22,7.90
2013,05,05,03,23,7.90
2013,05,05,03,24,7.80
2013,05,05,03,25,7.80
2013,05,05,03,26,7.80
2013,05,05,03,27,7.70
2013,05,05,03,28,7.70
2013,05,05,03,29,7.70
2013,05,05,03,30,7.60
2013,05,05,03,31,7.60
2013,05,05,03,32,7.60
2013,05,05,03,33,7.50
2013,05,05,03,34,7.50
2013,05,05,03,35,7.50
2013,05,05,03,36,7.50
2013,05,05,03,37,7.40
2013,05,05,03,38,7.40
2013,05,05,03,39,7.40
2013,05,05,03,40,7.40
2013,05,05,03,41,7.40
2013,05,05,03,42,7.40
2013,05,05,03,43,7.40
2013,05,05,03,44,7.40
2013,05,05,03,45,7.40
2013,05,05,03,46,7.40
2013,05,05,03,47,7.40
2013,05,05,03,48,7.40
2013,05,05,03,49,7.40
2013,05,05,03,50,7.40
2013,05,05,03,51,7.40
2013,05,05,03,52,7.50
2013,05,05,03,53,7.50
2013,05,05,03,54,7.50
2013,05,05,03,55,7.50
2013,05,05,03,56,7.60
2013,05,05,03,57,7.60
2013,05,05,03,58,7.60
2013,05,05,03,59,7.60
2013,05,05,04,00,7.60
2013,05,05,04,01,7.60
2013,05,05,04,02,7.60
2013,05,05,04,03,7.60
2013,05,05,04,04,7.60
2013,05,05,04,05,7.60
2013,05,05,04,06,7.60
2013,05,05,04,07,7.60
2013,05,05,04,08,7.60
2013,05,05,04,09,7.60
2013,05,05,04,10,7.60
2013,05,05,04,11,7.60
2013,05,05,04,12,7.60
2013,05,05,04,13,7.70
2013,05,05,04,14,7.70
2013,05,05,04,15,7.70
2013,05,05,04,16,7.70
2013,05,05,04,17,7.70
2013,05,05,04,18,7.70
2013,05,05,04,19,7.70
2013,05,05,04,20,7.70
2013,05,05,04,21,7.70
2013,05,05,04,22,7.70
2013,05,05,04,23,7.70
2013,05,05,04,24,7.70
2013,05,05,04,25,7.70
2013,05,05,04,26,7.70
2013,05,05,04,27,7.70
2013,05,05,04,28,7.70
2013,05,05,04,29,7.70
2013,05,05,04,30,7.60
2013,05,05,04,31,7.60
2013,05,05,04,32,7.50
2013,05,05,04,33,7.50
2013,05,05,04,34,7.50
2013,05,05,04,35,7.50
2013,05,05,04,36,7.50
2013,05,05,04,37,7.50
2013,05,05,04,38,7.50
2013,05,05,04,39,7.50
2013,05,05,04,40,7.50
2013,05,05,04,41,7.50
2013,05,05,04,42,7.50
2013,05,05,04,43,7.50
2013,05,05,04,44,7.60
2013,05,05,04,45,7.50
2013,05,05,04,46,7.50
2013,05,05,04,47,7.50
2013,05,05,04,48,7.50
2013,05,05,04,49,7.50
2013,05,05,04,50,7.40
2013,05,05,04,51,7.40
2013,05,05,04,52,7.40
2013,05,05,04,53,7.30
2013,05,05,04,54,7.30
2013,05,05,04,55,7.30
2013,05,05,04,56,7.30
2013,05,05,04,57,7.20
2013,05,05,04,58,7.20
2013,05,05,04,59,7.20
2013,05,05,05,00,7.20
2013,05,05,05,01,7.20
2013,05,05,05,02,7.20
2013,05,05,05,03,7.20
2013,05,05,05,04,7.20
2013,05,05,05,05,7.20
2013,05,05,05,06,7.20
2013,05,05,05,07,7.20
2013,05,05,05,08,7.20
2013,05,05,05,09,7.20
2013,05,05,05,10,7.20
2013,05,05,05,11,7.20
2013,05,05,05,12,7.20
2013,05,05,05,13,7.20
2013,05,05,05,14,7.20
2013,05,05,05,15,7.20
2013,05,05,05,16,7.20
2013,05,05,05,17,7.10
2013,05,05,05,18,7.10
2013,05,05,05,19,7.10
2013,05,05,05,20,7.10
2013,05,05,05,21,7.00
2013,05,05,05,22,7.00
2013,05,05,05,23,7.10
2013,05,05,05,24,7.10
2013,05,05,05,25,7.10
2013,05,05,05,26,7.10
2013,05,05,05,27,7.10
2013,05,05,05,28,7.10
2013,05,05,05,29,7.00
2013,05,05,05,30,7.00
2013,05,05,05,31,7.00
2013,05,05,05,32,7.00
2013,05,05,05,33,7.00
2013,05,05,05,34,6.90
2013,05,05,05,35,6.90
2013,05,05,05,36,6.90
2013,05,05,05,37,6.90
2013,05,05,05,38,6.90
2013,05,05,05,39,6.90
2013,05,05,05,40,7.00
2013,05,05,05,41,7.00
2013,05,05,05,42,7.00
2013,05,05,05,43,7.00
2013,05,05,05,44,7.00
2013,05,05,05,45,7.00
2013,05,05,05,46,7.00
2013,05,05,05,47,7.00
2013,05,05,05,48,7.10
2013,05,05,05,49,7.10
2013,05,05,05,50,7.10
2013,05,05,05,51,7.10
2013,05,05,05,52,7.10
2013,05,05,05,53,7.20
2013,05,05,05,54,7.10
2013,05,05,05,55,7.10
2013,05,05,05,56,7.10
2013,05,05,05,57,7.00
2013,05,05,05,58,7.00
2013,05,05,05,59,6.90
2013,05,05,06,00,6.90
2013,05,05,06,01,6.90
2013,05,05,06,02,6.90
2013,05,05,06,03,6.90
2013,05,05,06,04,6.80
2013,05,05,06,05,6.80
2013,05,05,06,06,6.80
2013,05,05,06,07,6.90
2013,05,05,06,08,6.90
2013,05,05,06,09,6.90
2013,05,05,06,10,6.80
2013,05,05,06,11,6.80
2013,05,05,06,12,6.80
2013,05,05,06,13,6.80
2013,05,05,06,14,6.80
2013,05,05,06,15,6.80
2013,05,05,06,16,6.80
2013,05,05,06,17,6.80
2013,05,05,06,18,6.80
2013,05,05,06,19,6.80
2013,05,05,06,20,6.80
2013,05,05,06,21,6.90
2013,05,05,06,22,6.90
2013,05,05,06,23,6.90
2013,05,05,06,24,6.90
2013,05,05,06,25,6.90
2013,05,05,06,26,6.90
2013,05,05,06,27,6.90
2013,05,05,06,28,7.00
2013,05,05,06,29,7.00
2013,05,05,06,30,7.10
2013,05,05,06,31,7.10
2013,05,05,06,32,7.10
2013,05,05,06,33,7.10
2013,05,05,06,34,7.10
2013,05,05,06,35,7.20
2013,05,05,06,36,7.20
2013,05,05,06,37,7.20
2013,05,05,06,38,7.30
2013,05,05,06,39,7.30
2013,05,05,06,40,7.30
2013,05,05,06,41,7.40
2013,05,05,06,42,7.40
2013,05,05,06,43,7.40
2013,05,05,06,44,7.50
2013,05,05,06,45,7.60
2013,05,05,06,46,7.60
2013,05,05,06,47,7.60
2013,05,05,06,48,7.70
2013,05,05,06,49,7.70
2013,05,05,06,50,7.80
2013,05,05,06,51,7.80
2013,05,05,06,52,7.80
2013,05,05,06,53,7.90
2013,05,05,06,54,8.00
2013,05,05,06,55,8.00
2013,05,05,06,56,8.10
2013,05,05,06,57,8.20
2013,05,05,06,58,8.30
2013,05,05,06,59,8.30
2013,05,05,07,00,8.40
2013,05,05,07,01,8.50
2013,05,05,07,02,8.60
2013,05,05,07,03,8.60
2013,05,05,07,04,8.70
2013,05,05,07,05,8.70
2013,05,05,07,06,8.80
2013,05,05,07,07,8.80
2013,05,05,07,08,8.90
2013,05,05,07,09,8.90
2013,05,05,07,10,9.00
2013,05,05,07,11,9.10
2013,05,05,07,12,9.20
2013,05,05,07,13,9.30
2013,05,05,07,14,9.30
2013,05,05,07,15,9.40
2013,05,05,07,16,9.50
2013,05,05,07,17,9.50
2013,05,05,07,18,9.60
2013,05,05,07,19,9.60
2013,05,05,07,20,9.70
2013,05,05,07,21,9.70
2013,05,05,07,22,9.80
2013,05,05,07,23,9.80
2013,05,05,07,24,9.90
2013,05,05,07,25,9.90
2013,05,05,07,26,9.90
2013,05,05,07,27,10.00
2013,05,05,07,28,10.10
2013,05,05,07,29,10.10
2013,05,05,07,30,10.20
2013,05,05,07,31,10.30
2013,05,05,07,32,10.40
2013,05,05,07,33,10.50
2013,05,05,07,34,10.60
2013,05,05,07,35,10.70
2013,05,05,07,36,10.70
2013,05,05,07,37,10.80
2013,05,05,07,38,10.90
2013,05,05,07,39,11.00
2013,05,05,07,40,11.10
2013,05,05,07,41,11.20
2013,05,05,07,42,11.30
2013,05,05,07,43,11.40
2013,05,05,07,44,11.50
2013,05,05,07,45,11.50
2013,05,05,07,46,11.60
2013,05,05,07,47,11.70
2013,05,05,07,48,11.80
2013,05,05,07,49,11.90
2013,05,05,07,50,12.00
2013,05,05,07,51,12.10
2013,05,05,07,52,12.20
2013,05,05,07,53,12.30
2013,05,05,07,54,12.40
2013,05,05,07,55,12.40
2013,05,05,07,56,12.50
2013,05,05,07,57,12.60
2013,05,05,07,58,12.70
2013,05,05,07,59,12.70
2013,05,05,08,00,12.80
2013,05,05,08,01,12.90
2013,05,05,08,02,13.00
2013,05,05,08,03,13.10
2013,05,05,08,04,13.20
2013,05,05,08,05,13.30
2013,05,05,08,06,13.40
2013,05,05,08,07,13.50
2013,05,05,08,08,13.70
2013,05,05,08,09,13.80
2013,05,05,08,10,13.90
2013,05,05,08,11,14.10
2013,05,05,08,12,14.20
2013,05,05,08,13,14.30
2013,05,05,08,14,14.50
2013,05,05,08,15,14.60
2013,05,05,08,16,14.80
2013,05,05,08,17,14.90
2013,05,05,08,18,15.00
2013,05,05,08,19,15.10
2013,05,05,08,20,15.20
2013,05,05,08,21,15.30
2013,05,05,08,22,15.40
2013,05,05,08,23,15.50
2013,05,05,08,24,15.60
2013,05,05,08,25,15.70
2013,05,05,08,26,15.80
2013,05,05,08,27,15.80
2013,05,05,08,28,15.80
2013,05,05,08,29,15.90
2013,05,05,08,30,16.00
2013,05,05,08,31,16.00
2013,05,05,08,32,16.20
2013,05,05,08,33,16.30
2013,05,05,08,34,16.40
2013,05,05,08,35,16.50
2013,05,05,08,36,16.60
2013,05,05,08,37,16.70
2013,05,05,08,38,16.70
2013,05,05,08,39,16.80
2013,05,05,08,40,16.90
2013,05,05,08,41,17.00
2013,05,05,08,42,17.00
2013,05,05,08,43,17.10
2013,05,05,08,44,17.10
2013,05,05,08,45,17.10
2013,05,05,08,46,17.10
2013,05,05,08,47,17.10
2013,05,05,08,48,17.00
2013,05,05,08,49,17.00
2013,05,05,08,50,17.00
2013,05,05,08,51,17.00
2013,05,05,08,52,17.00
2013,05,05,08,53,17.10
2013,05,05,08,54,17.10
2013,05,05,08,55,17.10
2013,05,05,08,56,17.10
2013,05,05,08,57,17.10
2013,05,05,08,58,17.20
2013,05,05,08,59,17.20
2013,05,05,09,00,17.20
2013,05,05,09,01,17.20
2013,05,05,09,02,17.30
2013,05,05,09,03,17.30
2013,05,05,09,04,17.30
2013,05,05,09,05,17.30
2013,05,05,09,06,17.40
2013,05,05,09,07,17.40
2013,05,05,09,08,17.40
2013,05,05,09,09,17.50
2013,05,05,09,10,17.60
2013,05,05,09,11,17.60
2013,05,05,09,12,17.70
2013,05,05,09,13,17.80
2013,05,05,09,14,17.80
2013,05,05,09,15,17.90
2013,05,05,09,16,18.00
2013,05,05,09,17,18.10
2013,05,05,09,18,18.10
2013,05,05,09,19,18.20
2013,05,05,09,20,18.20
2013,05,05,09,21,18.20
2013,05,05,09,22,18.20
2013,05,05,09,23,18.30
2013,05,05,09,24,18.40
2013,05,05,09,25,18.50
2013,05,05,09,26,18.50
2013,05,05,09,27,18.50
2013,05,05,09,28,18.50
2013,05,05,09,29,18.50
2013,05,05,09,30,18.60
2013,05,05,09,31,18.60
2013,05,05,09,32,18.60
2013,05,05,09,33,18.60
2013,05,05,09,34,18.60
2013,05,05,09,35,18.60
2013,05,05,09,36,18.60
2013,05,05,09,37,18.60
2013,05,05,09,38,18.70
2013,05,05,09,39,18.70
2013,05,05,09,40,18.70
2013,05,05,09,41,18.70
2013,05,05,09,42,18.70
2013,05,05,09,43,18.70
2013,05,05,09,44,18.70
2013,05,05,09,45,18.70
2013,05,05,09,46,18.70
2013,05,05,09,47,18.70
2013,05,05,09,48,18.70
2013,05,05,09,49,18.70
2013,05,05,09,50,18.70
2013,05,05,09,51,18.70
2013,05,05,09,52,18.80
2013,05,05,09,53,18.80
2013,05,05,09,54,18.90
2013,05,05,09,55,18.90
2013,05,05,09,56,19.00
2013,05,05,09,57,19.00
2013,05,05,09,58,19.10
2013,05,05,09,59,19.20
2013,05,05,10,00,19.30
2013,05,05,10,01,19.40
2013,05,05,10,02,19.40
2013,05,05,10,03,19.40
2013,05,05,10,04,19.40
2013,05,05,10,05,19.40
2013,05,05,10,06,19.40
2013,05,05,10,07,19.30
2013,05,05,10,08,19.30
2013,05,05,10,09,19.30
2013,05,05,10,10,19.30
2013,05,05,10,11,19.40
2013,05,05,10,12,19.50
2013,05,05,10,13,19.50
2013,05,05,10,14,19.60
2013,05,05,10,15,19.60
2013,05,05,10,16,19.60
2013,05,05,10,17,19.60
2013,05,05,10,18,19.50
2013,05,05,10,19,19.50
2013,05,05,10,20,19.50
2013,05,05,10,21,19.50
2013,05,05,10,22,19.60
2013,05,05,10,23,19.60
2013,05,05,10,24,19.40
2013,05,05,10,25,19.20
2013,05,05,10,26,19.20
2013,05,05,10,27,19.20
2013,05,05,10,28,19.20
2013,05,05,10,29,19.30
2013,05,05,10,30,19.40
2013,05,05,10,31,19.40
2013,05,05,10,32,19.40
2013,05,05,10,33,19.40
2013,05,05,10,34,19.40
2013,05,05,10,35,19.40
2013,05,05,10,36,19.40
2013,05,05,10,37,19.40
2013,05,05,10,38,19.40
2013,05,05,10,39,19.40
2013,05,05,10,40,19.50
2013,05,05,10,41,19.50
2013,05,05,10,42,19.40
2013,05,05,10,43,19.40
2013,05,05,10,44,19.40
2013,05,05,10,45,19.40
2013,05,05,10,46,19.40
2013,05,05,10,47,19.30
2013,05,05,10,48,19.40
2013,05,05,10,49,19.40
2013,05,05,10,50,19.30
2013,05,05,10,51,19.30
2013,05,05,10,52,19.30
2013,05,05,10,53,19.20
2013,05,05,10,54,19.00
2013,05,05,10,55,19.00
2013,05,05,10,56,18.90
2013,05,05,10,57,18.90
2013,05,05,10,58,18.90
2013,05,05,10,59,18.90
2013,05,05,11,00,18.90
2013,05,05,11,01,18.90
2013,05,05,11,02,19.00
2013,05,05,11,03,19.00
2013,05,05,11,04,19.10
2013,05,05,11,05,19.10
2013,05,05,11,06,19.10
2013,05,05,11,07,19.10
2013,05,05,11,08,19.10
2013,05,05,11,09,19.10
2013,05,05,11,10,19.00
2013,05,05,11,11,18.90
2013,05,05,11,12,18.80
2013,05,05,11,13,18.80
2013,05,05,11,14,18.80
2013,05,05,11,15,18.90
2013,05,05,11,16,19.00
2013,05,05,11,17,19.10
2013,05,05,11,18,19.10
2013,05,05,11,19,19.10
2013,05,05,11,20,19.10
2013,05,05,11,21,19.00
2013,05,05,11,22,19.00
2013,05,05,11,23,19.00
2013,05,05,11,24,19.00
2013,05,05,11,25,19.10
2013,05,05,11,26,19.30
2013,05,05,11,27,19.40
2013,05,05,11,28,19.40
2013,05,05,11,29,19.40
2013,05,05,11,30,19.40
2013,05,05,11,31,19.50
2013,05,05,11,32,19.50
2013,05,05,11,33,19.60
2013,05,05,11,34,19.70
2013,05,05,11,35,19.80
2013,05,05,11,36,19.90
2013,05,05,11,37,19.90
2013,05,05,11,38,19.90
2013,05,05,11,39,19.80
2013,05,05,11,40,19.70
2013,05,05,11,41,19.60
2013,05,05,11,42,19.40
2013,05,05,11,43,19.30
2013,05,05,11,44,19.30
2013,05,05,11,45,19.20
2013,05,05,11,46,19.30
2013,05,05,11,47,19.30
2013,05,05,11,48,19.40
2013,05,05,11,49,19.50
2013,05,05,11,50,19.60
2013,05,05,11,51,19.70
2013,05,05,11,52,19.70
2013,05,05,11,53,19.80
2013,05,05,11,54,19.80
2013,05,05,11,55,19.80
2013,05,05,11,56,19.90
2013,05,05,11,57,19.90
2013,05,05,11,58,19.90
2013,05,05,11,59,19.90
2013,05,05,12,00,19.90
2013,05,05,12,01,19.90
2013,05,05,12,02,19.90
2013,05,05,12,03,20.00
2013,05,05,12,04,20.10
2013,05,05,12,05,20.20
2013,05,05,12,06,20.20
2013,05,05,12,07,20.30
2013,05,05,12,08,20.30
2013,05,05,12,09,20.30
2013,05,05,12,10,20.30
2013,05,05,12,11,20.40
2013,05,05,12,12,20.50
2013,05,05,12,13,20.50
2013,05,05,12,14,20.60
2013,05,05,12,15,20.60
2013,05,05,12,16,20.60
2013,05,05,12,17,20.60
2013,05,05,12,18,20.70
2013,05,05,12,19,20.80
2013,05,05,12,20,20.90
2013,05,05,12,21,20.90
2013,05,05,12,22,21.00
2013,05,05,12,23,21.10
2013,05,05,12,24,21.20
2013,05,05,12,25,21.30
2013,05,05,12,26,21.50
2013,05,05,12,27,21.60
2013,05,05,12,28,21.70
2013,05,05,12,29,21.80
2013,05,05,12,30,21.90
2013,05,05,12,31,21.90
2013,05,05,12,32,21.80
2013,05,05,12,33,21.60
2013,05,05,12,34,21.40
2013,05,05,12,35,21.20
2013,05,05,12,36,21.10
2013,05,05,12,37,21.00
2013,05,05,12,38,21.10
2013,05,05,12,39,21.10
2013,05,05,12,40,21.20
2013,05,05,12,41,21.30
2013,05,05,12,42,21.40
2013,05,05,12,43,21.40
2013,05,05,12,44,21.40
2013,05,05,12,45,21.50
2013,05,05,12,46,21.40
2013,05,05,12,47,21.40
2013,05,05,12,48,21.40
2013,05,05,12,49,21.40
2013,05,05,12,50,21.30
2013,05,05,12,51,21.30
2013,05,05,12,52,21.30
2013,05,05,12,53,21.40
2013,05,05,12,54,21.40
2013,05,05,12,55,21.40
2013,05,05,12,56,21.50
2013,05,05,12,57,21.50
2013,05,05,12,58,21.60
2013,05,05,12,59,21.70
2013,05,05,13,00,21.80
2013,05,05,13,01,21.90
2013,05,05,13,02,21.90
2013,05,05,13,03,22.00
2013,05,05,13,04,22.00
2013,05,05,13,05,22.00
2013,05,05,13,06,22.10
2013,05,05,13,07,22.10
2013,05,05,13,08,22.10
2013,05,05,13,09,22.10
2013,05,05,13,10,22.20
2013,05,05,13,11,22.30
2013,05,05,13,12,22.40
2013,05,05,13,13,22.50
2013,05,05,13,14,22.60
2013,05,05,13,15,22.50
2013,05,05,13,16,22.50
2013,05,05,13,17,22.40
2013,05,05,13,18,22.30
2013,05,05,13,19,22.30
2013,05,05,13,20,22.10
2013,05,05,13,21,22.00
2013,05,05,13,22,22.00
2013,05,05,13,23,22.00
2013,05,05,13,24,22.10
2013,05,05,13,25,22.30
2013,05,05,13,26,22.40
2013,05,05,13,27,22.50
2013,05,05,13,28,22.60
2013,05,05,13,29,22.80
2013,05,05,13,30,22.90
2013,05,05,13,31,23.00
2013,05,05,13,32,23.10
2013,05,05,13,33,23.20
2013,05,05,13,34,23.30
2013,05,05,13,35,23.40
2013,05,05,13,36,23.50
2013,05,05,13,37,23.60
2013,05,05,13,38,23.70
2013,05,05,13,39,23.70
2013,05,05,13,40,23.80
2013,05,05,13,41,24.00
2013,05,05,13,42,24.10
2013,05,05,13,43,24.20
2013,05,05,13,44,24.30
2013,05,05,13,45,24.40
2013,05,05,13,46,24.50
2013,05,05,13,47,24.60
2013,05,05,13,48,24.70
2013,05,05,13,49,24.80
2013,05,05,13,50,24.90
2013,05,05,13,51,25.00
2013,05,05,13,52,25.00
2013,05,05,13,53,25.10
2013,05,05,13,54,25.20
2013,05,05,13,55,25.10
2013,05,05,13,56,25.00
2013,05,05,13,57,24.70
2013,05,05,13,58,24.40
2013,05,05,13,59,24.20
2013,05,05,14,00,24.00
2013,05,05,14,01,23.70
2013,05,05,14,02,23.30
2013,05,05,14,03,23.00
2013,05,05,14,04,22.70
2013,05,05,14,05,22.60
2013,05,05,14,06,22.50
2013,05,05,14,07,22.40
2013,05,05,14,08,22.30
2013,05,05,14,09,22.10
2013,05,05,14,10,22.00
2013,05,05,14,11,21.90
2013,05,05,14,12,21.60
2013,05,05,14,13,21.60
2013,05,05,14,14,21.60
2013,05,05,14,15,21.60
2013,05,05,14,16,21.70
2013,05,05,14,17,21.80
2013,05,05,14,18,21.80
2013,05,05,14,19,21.80
2013,05,05,14,20,21.80
2013,05,05,14,21,21.80
2013,05,05,14,22,21.80
2013,05,05,14,23,21.80
2013,05,05,14,24,21.80
2013,05,05,14,25,21.70
2013,05,05,14,26,21.60
2013,05,05,14,27,21.30
2013,05,05,14,28,21.10
2013,05,05,14,29,20.90
2013,05,05,14,30,20.80
2013,05,05,14,31,20.70
2013,05,05,14,32,20.60
2013,05,05,14,33,20.60
2013,05,05,14,34,20.70
2013,05,05,14,35,20.80
2013,05,05,14,36,20.90
2013,05,05,14,37,21.10
2013,05,05,14,38,21.40
2013,05,05,14,39,21.60
2013,05,05,14,40,21.70
2013,05,05,14,41,21.70
2013,05,05,14,42,21.80
2013,05,05,14,43,22.00
2013,05,05,14,44,22.10
2013,05,05,14,45,22.30
2013,05,05,14,46,22.50
2013,05,05,14,47,22.60
2013,05,05,14,48,22.80
2013,05,05,14,49,22.80
2013,05,05,14,50,22.90
2013,05,05,14,51,23.00
2013,05,05,14,52,23.10
2013,05,05,14,53,23.10
2013,05,05,14,54,23.20
2013,05,05,14,55,23.30
2013,05,05,14,56,23.40
2013,05,05,14,57,23.40
2013,05,05,14,58,23.50
2013,05,05,14,59,23.60
2013,05,05,15,00,23.70
2013,05,05,15,01,23.80
2013,05,05,15,02,23.80
2013,05,05,15,03,23.90
2013,05,05,15,04,23.90
2013,05,05,15,05,24.00
2013,05,05,15,06,24.10
2013,05,05,15,07,24.20
2013,05,05,15,08,24.30
2013,05,05,15,09,24.50
2013,05,05,15,10,24.50
2013,05,05,15,11,24.60
2013,05,05,15,12,24.60
2013,05,05,15,13,24.50
2013,05,05,15,14,24.50
2013,05,05,15,15,24.50
2013,05,05,15,16,24.50
2013,05,05,15,17,24.40
2013,05,05,15,18,24.30
2013,05,05,15,19,24.10
2013,05,05,15,20,23.90
2013,05,05,15,21,23.50
2013,05,05,15,22,23.10
2013,05,05,15,23,22.80
2013,05,05,15,24,22.70
2013,05,05,15,25,22.50
2013,05,05,15,26,22.40
2013,05,05,15,27,22.20
2013,05,05,15,28,22.00
2013,05,05,15,29,21.90
2013,05,05,15,30,21.80
2013,05,05,15,31,21.80
2013,05,05,15,32,21.80
2013,05,05,15,33,21.80
2013,05,05,15,34,21.90
2013,05,05,15,35,22.00
2013,05,05,15,36,22.20
2013,05,05,15,37,22.30
2013,05,05,15,38,22.40
2013,05,05,15,39,22.60
2013,05,05,15,40,22.80
2013,05,05,15,41,22.90
2013,05,05,15,42,23.10
2013,05,05,15,43,23.20
2013,05,05,15,44,23.30
2013,05,05,15,45,23.40
2013,05,05,15,46,23.60
2013,05,05,15,47,23.70
2013,05,05,15,48,23.80
2013,05,05,15,49,23.90
2013,05,05,15,50,24.00
2013,05,05,15,51,24.10
2013,05,05,15,52,24.20
2013,05,05,15,53,24.30
2013,05,05,15,54,24.30
2013,05,05,15,55,24.40
2013,05,05,15,56,24.40
2013,05,05,15,57,24.40
2013,05,05,15,58,24.40
2013,05,05,15,59,24.40
2013,05,05,16,00,24.40
2013,05,05,16,01,24.50
2013,05,05,16,02,24.50
2013,05,05,16,03,24.50
2013,05,05,16,04,24.50
2013,05,05,16,05,24.50
2013,05,05,16,06,24.60
2013,05,05,16,07,24.60
2013,05,05,16,08,24.60
2013,05,05,16,09,24.70
2013,05,05,16,10,24.70
2013,05,05,16,11,24.80
2013,05,05,16,12,24.90
2013,05,05,16,13,24.90
2013,05,05,16,14,25.00
2013,05,05,16,15,25.10
2013,05,05,16,16,25.10
2013,05,05,16,17,25.10
2013,05,05,16,18,25.10
2013,05,05,16,19,25.00
2013,05,05,16,20,24.90
2013,05,05,16,21,24.80
2013,05,05,16,22,24.80
2013,05,05,16,23,24.70
2013,05,05,16,24,24.70
2013,05,05,16,25,24.70
2013,05,05,16,26,24.70
2013,05,05,16,27,24.60
2013,05,05,16,28,24.60
2013,05,05,16,29,24.50
2013,05,05,16,30,24.50
2013,05,05,16,31,24.60
2013,05,05,16,32,24.60
2013,05,05,16,33,24.60
2013,05,05,16,34,24.70
2013,05,05,16,35,24.70
2013,05,05,16,36,24.80
2013,05,05,16,37,24.90
2013,05,05,16,38,25.00
2013,05,05,16,39,25.00
2013,05,05,16,40,25.00
2013,05,05,16,41,25.00
2013,05,05,16,42,25.00
2013,05,05,16,43,25.00
2013,05,05,16,44,25.00
2013,05,05,16,45,25.00
2013,05,05,16,46,25.00
2013,05,05,16,47,24.90
2013,05,05,16,48,24.90
2013,05,05,16,49,24.90
2013,05,05,16,50,24.90
2013,05,05,16,51,24.90
2013,05,05,16,52,24.90
2013,05,05,16,53,24.90
2013,05,05,16,54,24.90
2013,05,05,16,55,24.90
2013,05,05,16,56,25.00
2013,05,05,16,57,25.00
2013,05,05,16,58,25.00
2013,05,05,16,59,25.10
2013,05,05,17,00,25.10
2013,05,05,17,01,25.20
2013,05,05,17,02,25.20
2013,05,05,17,03,25.20
2013,05,05,17,04,25.20
2013,05,05,17,05,25.20
2013,05,05,17,06,25.20
2013,05,05,17,07,25.30
2013,05,05,17,08,25.30
2013,05,05,17,09,25.40
2013,05,05,17,10,25.50
2013,05,05,17,11,25.50
2013,05,05,17,12,25.50
2013,05,05,17,13,25.50
2013,05,05,17,14,25.50
2013,05,05,17,15,25.50
2013,05,05,17,16,25.50
2013,05,05,17,17,25.40
2013,05,05,17,18,25.40
2013,05,05,17,19,25.30
2013,05,05,17,20,25.20
2013,05,05,17,21,25.20
2013,05,05,17,22,25.10
2013,05,05,17,23,25.10
2013,05,05,17,24,25.10
2013,05,05,17,25,25.10
2013,05,05,17,26,25.20
2013,05,05,17,27,25.20
2013,05,05,17,28,25.30
2013,05,05,17,29,25.40
2013,05,05,17,30,25.50
2013,05,05,17,31,25.60
2013,05,05,17,32,25.80
2013,05,05,17,33,25.90
2013,05,05,17,34,26.00
2013,05,05,17,35,26.10
2013,05,05,17,36,26.30
2013,05,05,17,37,26.40
2013,05,05,17,38,26.40